Regional Weather Roundup
Issued by NWS

Home | Current Version | Previous Version | Text Only | Print | Product List | Glossary On
Versions: 1 2 3 4 5 6 7 8 9 10 11 12 13 14 15 16 17 18 19 20 21 22 23 24 25 26 27 28 29 30 31 32 33 34 35 36 37 38 39 40 41 42 43 44 45 46 47 48 49 50
000
ASUS45 KBOU 230407
RWRCO

WEATHER ROUNDUP FOR COLORADO
NATIONAL WEATHER SERVICE DENVER/BOULDER CO
1000 PM MDT TUE AUG 22 2017

NOTE: "FAIR" INDICATES FEW OR NO CLOUDS BELOW 12000 FEET WITH NO
SIGNIFICANT WEATHER AND/OR OBSTRUCTIONS TO VISIBILITY.

COZ001>005-013-030-031-230500-
...NORTHWEST COLORADO...

CITY           SKY/WX    TMP DP  RH WIND       PRES   REMARKS
CRAIG          FAIR      58  39  49 SE3       30.30R
HAYDEN         FAIR      66  40  38 CALM      30.34R
MEEKER         FAIR      62  47  57 CALM      30.33R
RABBIT EARS PA CLOUDY    54  34  47 W7        30.62S
STEAMBOAT SPGS FAIR      63  41  44 CALM      30.36R
WALDEN         FAIR      57  36  44 S6        30.44R
$$

COZ006>008-011-230500-
...WEST CENTRAL VALLEYS...

CITY           SKY/WX    TMP DP  RH WIND       PRES   REMARKS
GRAND JUNCTION FAIR      73  49  42 S6        30.22S
MONTROSE       FAIR      66  47  50 S7        30.32R
EAGLE          FAIR      64  41  42 SE5       30.38R
RIFLE          FAIR      72  44  36 SE17      30.28R
DELTA          FAIR      74  44  34 NE6       30.27R
NUCLA          FAIR      70  43  37 E8        30.34S
$$

COZ017>023-064>068-230500-
...SOUTHWEST COLORADO...

CITY           SKY/WX    TMP DP  RH WIND       PRES   REMARKS
DURANGO        FAIR      66  42  41 NE9       30.36R
CORTEZ         FAIR      63  51  65 NE8       30.28R
PAGOSA SPRINGS MOCLDY    58  47  66 NE8       30.47R
TELLURIDE      FAIR      54  46  75 CALM      30.56R
WOLF CREEK PAS CLOUDY    41  39  93 CALM      30.81R THUNDER
$$

COZ009-010-012-014-032>034-037-058>063-230500-
...CENTRAL COLORADO...

CITY           SKY/WX    TMP DP  RH WIND       PRES   REMARKS
ASPEN          FAIR      58  45  62 SE9       30.46R
BUENA VISTA    FAIR      57  43  59 W5        30.52S
COPPER MTN     MOCLDY    54  34  47 S12       30.75S
BERTHOUD PASS  MOCLDY    41  36  81 S10       30.77S
COTTONWOOD PAS FAIR      54  39  58 CALM      30.64S
GUNNISON       FAIR      57  47  69 NE5       30.48R
KREMMLING      FAIR      72  41  33 S13       30.41R
LEADVILLE      CLOUDY    51  41  68 S3        30.61R
MONARCH PASS   MOCLDY    43  37  81 E17       30.85S
SALIDA         CLOUDY    59  53  78 SW5       30.57R
SUNLIGHT       FAIR      48  34  57 S6        30.68R
WILKERSON PASS DRIZZLE   45  37  76 SW8       30.76R
$$

COZ069>075-230500-
...SAN LUIS VALLEY/SANGRE DE CRISTO MOUNTAINS...

CITY           SKY/WX    TMP DP  RH WIND       PRES   REMARKS
ALAMOSA        FAIR      53  51  93 W8        30.46R
DEL NORTE      FAIR      52  48  87 W9        30.51S
LA VETA PASS   NOT AVBL
SAGUACHE         N/A    N/A N/A N/A MISG        N/A
$$

COZ035-036-038>040-230500-
...NORTHERN COLORADO FRONT RANGE...

CITY           SKY/WX    TMP DP  RH WIND       PRES   REMARKS
DENVER INTL AP MOCLDY    71  52  50 S18       30.21F
DMNS CITY PARK   N/A     72  43  35 S3G14     30.21F
AURORA         MOCLDY    70  51  50 S16       30.24F
FRONT RANGE AP FAIR      70  54  56 S17G23    30.24F
ERIE MUNI ARPT FAIR      73  42  31 S5        30.22F
BOULDER MUN AP FAIR      75  41  29 W15       30.17F
CENTENNIAL     MOCLDY    71  41  33 SW13      30.27F
BROOMFIELD     NOT AVBL
FORT COLLINS   FAIR      67  58  72 N5        30.19R
LONGMONT       FAIR      73  47  39 NE3       30.19F
$$

COZ041-046-047-076>085-087-088-230500-
...PIKES PEAK/PALMER DIVIDE AND SOUTHERN FOOTHILLS...

CITY           SKY/WX    TMP DP  RH WIND       PRES   REMARKS
COLO. SPRINGS  FAIR      63  53  70 SE6       30.36S
A. F. ACADEMY  MOCLDY    63  53  70 SE5       30.36S
SCHRIEVER AFB  FAIR      58  53  82 MISG      30.36S
CHEYENNE MTN   MOCLDY    63  47  54 CALM      30.34S
ELLICOTT       FAIR     N/A N/A N/A S7        30.34S
FALCON         FAIR      59  52  78 SW7       30.40S
FORT CARSON    FAIR      65  55  69 SW5       30.32S
LIMON          FAIR      60  55  83 S7        30.30R
MONUMENT HILL  FAIR      59  52  77 S10       30.40S
CANON CITY     CLEAR     66  59  77 W7        30.31R
WALSENBURG     FAIR      61  50  67 CALM      30.35R
TRINIDAD       FAIR      58  52  80 SW6       30.34R
$$

COZ042>045-048>051-090-091-230500-
...NORTHEAST COLORADO...

CITY           SKY/WX    TMP DP  RH WIND       PRES   REMARKS
GREELEY ARPT   FAIR      65  61  87 SE8       30.17R
AKRON          NOT AVBL
BURLINGTON     FAIR      63  56  78 S9        30.26R
WRAY           FAIR      64  54  68 SE9       30.22S
YUMA           FAIR      61  45  55 SE7       30.22S
STERLING       FAIR      68  54  60 S10       30.17S
HOLYOKE        FAIR      63  54  72 SE12      30.21S
FORT MORGAN    FAIR      67  53  61 SE9       30.20R
$$

COZ086-089-092>099-230500-
...SOUTHEAST COLORADO...

CITY           SKY/WX    TMP DP  RH WIND       PRES   REMARKS
PUEBLO         FAIR      67  51  56 E6        30.26R
LA JUNTA       FAIR      68  57  68 SW7       30.25R
LAMAR          FAIR      66  56  70 SE10      30.21S
SPRINGFIELD      N/A     59  59 100 CALM      30.27R
$$



USA.gov is the U.S. government's official web portal to all federal, state and local government web resources and services.